Погода в Арке

Погода в Арке : погода сейчас, прогноз погоды и архив. Всё, что Вы хотите узнать о погоде в Арке!

Хотите узнать прогноз погоды в Арке? Тогда Вам сюда: Погода в Арке

Поиск расширенной информации на нашем сайте:

Другие новости

Новости СМИ2

Главная страница сайта

Новости сайта

03.07.2017

Напоминаем, что на нашем специализированном сайте Метеоцентр.Азия вы можете получить высокодетализированные автоматические прогнозы погоды по пунктам России, СНГ и мира в авиационном формате (включающие направление и скорость ветра, видимость, явления погоды, количество и форму облачности, нижнюю и верхнюю границу облачности).

Рекомендуем: Раздолье электронная отчетность электронная отчетность.

Погода в Арке - сегодня

Время (UTC), дата Ветер
(°,м/с) 
Видим.   Явления Облачность Т
(°С)
Тd
(°С)
f(%) Тe
(°С)
Pmin
(гПа)
dP
(гПа)
Po
(мм)
O2
(г/м3)
Тmin Tmax R s Состояние
почвы
15 21.09.17 290 (З) 2000 м  дождь  10/10 300 м 
[Frnb|Ns]
+5.1 +4.3 95 +5  1007.2  0.1  737  291           
18 21.09.17 290 (З) 4000 м  слаб. дождь  10/10 300 м 
[Frnb|Ns]
+4.9 +4 94 +5  1006.8  -0.4  737  291           
21 21.09.17 280 (З) 4000 м  слаб. дождь  10/10 300 м 
[Frnb|Ns]
+4.5 +4.1 97 +5  1006.6  -0.2  737  291  +4.3       
00 22.09.17 290 (З) 4000 м  слаб. дождь  10/10 300 м 
[Frnb|Ns]
+5.8 +4.7 93 +6  1006.7  0.2  737  290           
03 22.09.17 300 (СЗ) 20000 м  {дождь}  10/10 300 м кучево-дожд. 
[Cb cap]
+8.8 +5.9 82 +10  1005.6  -0.8  736  286           
06 22.09.17 280 (З) 20000 м  {дождь}  10/10 600 м 
[Sc]
+9.9 +4.1 67 +10  1005.1  -0.5  736  286           
09 22.09.17 280 (З) 20000 м    4/4 1000 м 
[Sc]
+6.7 -0 62 +7  1006.2  0.8  737  290    +10.2     
12 22.09.17 тихо ()   20000 м    1/1 1000 м 
[Sc]
-0.5 -0.9 97 -1  1006.8  0.1  737  297           
15 22.09.17 220 (ЮЗ) 20000 м    ясно 
-2.1 -2.3 99 -3  1006.1  -0.8  736  299           
18 22.09.17 тихо ()   20000 м    8/0 верхняя 
[Ci fib]
-1.7 -2.2 96 -2  1005.7  -0.4  736  299           
21 22.09.17 тихо ()   20000 м    8/8 1000 м 
[Sc]
-1.1 -1.5 97 -1  1006.7  737  298  -2.4         
00 23.09.17 310 (СЗ) 20000 м    3/0 верхняя 
[Ci fib]
+8.3 -2.4 47 +8  1007.2  1.4  738  289           
03 23.09.17 130 (ЮВ) 20000 м    1/0 верхняя 
[Ci fib]
+12.1 -2.4 36 +13  1008  738  285           
06 23.09.17 260 (З) 20000 м    ясно 
+14.4 -2.1 32 +15  1008  0.2  738  283           
09 23.09.17 тихо ()   20000 м    ясно 
+5.3 +3.2 86 +5  1010.2  1.4  740  292    +15       
12 23.09.17 330 (СЗ) 20000 м    ясно 
-0.2 -0.7 96 1012.5  1.8  741  299           
15 23.09.17 340 (С) 20000 м    ясно 
-1.6 -1.8 99 -1  1013.6  0.9  742  301           
18 23.09.17 350 (С) 20000 м    ясно 
-2.3 -2.5 99 -2  1013.8  0.1  742  302           
21 23.09.17 310 (СЗ) 20000 м    ясно 
-1.8 -2 99 -1  1014  0.1  742  301  -2.4         
00 24.09.17 260 (З) 20000 м    ясно 
+7.1 +1.5 68 +7  1012.7  -0.5  741  291           
03 24.09.17 200 (Ю) 20000 м    1/1 1000 м 
[Sc]
+15.8 +1.3 37 +17  1010.6  -1.4  740  282           
06 24.09.17 150 (ЮВ) 20000 м    8/5 1000 м верхняя 
[Sc|Ci fib]
+15.6 +1.5 38 +16  1009.9  -0.7  740  282           
09 24.09.17 190 (Ю) 20000 м    9/3 1000 м верхняя 
[Sc|Ci fib]
+9.6 +3.1 64 +10  1011.8  -0.7  741  288    +16.3       
12 24.09.17 тихо ()   20000 м    3/0 верхняя 
[Ci fib]
+3.5 +2 90 +4  1013.3  742  295           
15 24.09.17 тихо ()   20000 м    ясно 
+0.5 -0 96 +1  1013.8  0.2  742  298           
Время (UTC), дата Ветер
(°,м/с) 
Видим.   Явления Облачность Т
(°С)
Тd
(°С)
f(%) Тe
(°С)
Pmin
(гПа)
dP
(гПа)
Po
(мм)
O2
(г/м3)
Тmin Tmax R s Состояние
почвы

Для получения пояснительной информации подведите курсор к названию столбца.

ПОГОДА в Арке - архив

Всё, что Вы хотите узнать о погоде в Арке - удобно и подробно!

Выберите нужную дату (начиная с 1 января 2015* года) и нажмите кнопку "Найти".
Будут отображены архивные сводки погоды по пункту Арка, начиная с указанной даты.


Отображать данные в формате CSV (для использования в таблицах Excel)


Внимание! Наш архив погоды предназначен исключительно для личного некоммерческого использования в познавательных целях. Если Вам необходимы официальные справки о состоянии погоды (для производственных, юридических, коммерческих и т.п. целей), обращайтесь в органы Росгидромета.

*Примечание: данная дата относится к архиву по метеостанциям СССР (Россия, СНГ, Балтия).
Архив по метеостанциям Зарубежной Европы и Азии (кроме Китая) хранится 10 дней, по другим регионам земного шара (Китай, Африка, Америка, Австралия, Океания) - 1 день.

Арка - район местоположения метеостанции


Название, широта, долгота, высота метеостанции:
Арка 60.1°ш. 142.3°д. 198 м над ур. моря [Российская Федерация]

Дополнительная информация

В oтличие oт бoльшинства пoгoдных сайтoв мы публикуем пoдрoбную метеoинфoрмацию в детальнoм прoфессиoнальнoм фoрмате.

Характеристики температуры и влажнoсти вoздуха измеряются на высoте 2 м в тени вдали oт зданий и деревьев.
Скoрoсть ветра измеряется на высoте 10 м (на урoвне рoста челoвека скoрoсть ветра ниже в 1.5-2 раза). Если метеoстанция нахoдится в гoрoде или в лесу, тo скoрoсть ветра занижена на 2-4 м/с пo сравнению с oткрытым местoм. Скoрoсть ветра над акватoриями крупных рек и oзёр, а также на вершинах хoлмoв на 2-5 м/с выше, чем в oбычных услoвиях.
Атмoсфернoе давление в разных тoчках местнoсти мoжет значительнo oтличаться oт давления на метеoстанции, в зависимoсти oт услoвий рельефа (при пoдъёме на 10 м давление пoнижается примернo на 1 мм рт.ст.).